[[{"header":{"parameterUnit":"m.s-1","parameterCategory":1,"la1":30.2991,"la2":30.254,"lo1":-89.0895,"lo2":-89.0444,"dy":0.0017,"dx":0.0017,"nx":28,"ny":28,"refTime":"2025-01-17T09:00:00:Z","depth":0,"parameterNumber":2,"parameterNumberName":"U-component_of_WINDS"},"data":[0,0,0,0,0,0,0,0,0,0,0,0,0,0,0,0,0,0,0,0,0,0,0,0,0,0,0,0,0,0,0,0,0,0,0,0,0,0,0,0,0,0,0,0,0,0,0,0,0,0,0,0,0,0,0,0,0,0,1.6626,1.6626,0,1.6591,1.6591,1.659,1.6549,1.6549,1.6548,1.6548,1.6514,1.6514,1.6514,0,0,0,0,0,0,0,0,0,0,0,0,0,1.6663,1.6663,1.6626,1.6626,1.6625,1.6591,1.6591,1.659,1.6549,1.6549,1.6548,1.6547,1.6514,1.6514,1.6514,0,0,0,0,0,0,0,0,0,0,0,0,0,1.664,1.6663,1.6626,1.6601,1.6598,1.6591,1.6591,1.659,1.655,1.6549,1.6548,1.6547,1.6514,1.6514,1.6514,1.6529,0,0,1.6512,1.6512,0,0,0,0,0,0,0,0,1.6641,1.6638,1.6605,1.6603,1.66,1.6574,1.6591,1.657,1.655,1.6568,1.6547,1.6546,1.6535,1.6533,1.6528,1.6528,1.6526,1.6512,1.6512,1.6512,1.6512,0,0,0,0,0,0,0,1.6643,1.664,1.6612,1.6605,1.6601,1.6593,1.6588,1.6587,1.6557,1.6567,1.6563,1.656,1.6533,1.6529,1.6527,1.6526,1.6512,1.6512,1.6511,1.6511,1.654,1.6541,0,0,0,0,0,0,1.6648,1.6641,1.6614,1.6611,1.6618,1.6593,1.6588,1.6583,1.6557,1.6552,1.6561,1.6558,1.653,1.6528,1.6526,1.6545,1.6512,1.6511,1.6511,1.6539,1.654,1.6541,0,0,0,0,0,0,1.6649,1.6646,1.6615,1.6625,1.6621,1.6593,1.6588,1.6583,1.6578,1.6553,1.6548,1.6561,1.6529,1.6526,1.6529,1.6543,1.6511,1.6511,1.6538,1.6539,1.6541,1.6581,0,0,0,0,0,0,1.665,1.6646,1.6651,1.6626,1.662,1.6618,1.6589,1.6583,1.6577,1.6573,1.6552,1.6547,1.6528,1.653,1.6529,1.6542,1.651,1.6537,1.6539,1.654,1.6578,1.6584,1.6588,0,0,0,0,0,1.6651,1.6663,1.6651,1.6648,1.6625,1.6618,1.6616,1.6592,1.6578,1.6584,1.6568,1.6548,1.6542,1.6531,1.6529,1.6542,1.6536,1.6538,1.654,1.6576,1.6583,1.6588,0,0,0,0,0,0,1.669,1.6659,1.6645,1.6649,1.6637,1.6612,1.6617,1.66,1.6592,1.6588,1.6561,1.6557,1.6564,1.6553,1.6542,1.6557,1.6536,1.6538,1.6564,1.657,1.6575,1.6578,1.651,0,0,0,0,0,1.6699,1.6695,1.6669,1.6675,1.667,1.6645,1.6641,1.6624,1.6611,1.6605,1.6589,1.6578,1.6574,1.6571,1.6565,1.6577,1.6573,1.6585,1.659,1.6594,1.6597,1.6604,1.661,1.6549,1.6549,1.6549,0,0,1.6718,1.6701,1.67,1.6683,1.6671,1.6669,1.664,1.6639,1.6638,1.6605,1.6607,1.6596,1.6581,1.6589,1.6592,1.658,1.6613,1.6597,1.6601,1.6601,1.6607,1.6613,1.6618,1.6551,1.655,1.655,0,0,1.6751,1.6737,1.6742,1.6731,1.6714,1.6698,1.6699,1.6677,1.6668,1.6669,1.6646,1.6645,1.6637,1.6628,1.6623,1.6656,1.6639,1.6655,1.6681,1.669,1.6694,1.6699,1.6712,1.6717,1.6658,1.6658,1.6658,0,1.6777,1.6772,1.6747,1.6747,1.6741,1.6712,1.6718,1.6709,1.6691,1.6689,1.6676,1.6668,1.6656,1.6662,1.6671,1.6667,1.6669,1.6657,1.6695,1.6699,1.6703,1.6716,1.6721,1.666,1.666,1.6659,1.6659,0,1.6805,1.6802,1.6808,1.6792,1.6787,1.679,1.6768,1.6766,1.6751,1.6737,1.674,1.6725,1.6717,1.6717,1.6702,1.6723,1.6717,1.67,1.6678,1.6711,1.6723,1.6728,1.6663,1.6662,1.6662,1.6661,0,0,1.686,1.6832,1.6834,1.6828,1.6808,1.6806,1.681,1.6801,1.6801,1.6791,1.6794,1.679,1.6775,1.6769,1.6753,1.676,1.679,1.6743,1.6743,1.6754,1.6815,1.6828,1.6834,1.6779,1.678,1.678,1.6817,0,1.6891,1.6893,1.6872,1.6881,1.688,1.6854,1.6857,1.6846,1.6834,1.6832,1.6819,1.6817,1.6797,1.6793,1.6799,1.6785,1.6802,1.6783,1.6783,1.6784,1.6788,1.6839,1.6852,1.6887,1.6821,1.6821,1.6822,0,1.6926,1.6918,1.6927,1.6909,1.6908,1.6911,1.6903,1.6901,1.689,1.6881,1.6875,1.6857,1.6862,1.6841,1.6847,1.6834,1.6834,1.6828,1.6829,1.6828,1.6805,1.6842,1.6898,1.6903,1.6829,1.6828,1.6828,0,1.6967,1.6959,1.6963,1.6958,1.6937,1.6941,1.6933,1.692,1.6917,1.6911,1.691,1.6904,1.6902,1.6899,1.6881,1.6867,1.6891,1.6868,1.6885,1.6885,1.6891,1.6891,1.6949,1.6889,1.6889,1.6889,1.6889,0,1.7003,1.701,1.6982,1.6985,1.6993,1.697,1.6979,1.6968,1.6958,1.696,1.6937,1.694,1.6916,1.6917,1.6903,1.6912,1.6911,1.6905,1.6901,1.6907,1.6908,1.6906,1.6904,1.689,1.689,1.689,1.689,0,1.705,1.7031,1.7035,1.7016,1.7011,1.7018,1.7003,1.7006,1.6993,1.6996,1.6996,1.6976,1.6976,1.6958,1.6954,1.6945,1.696,1.6952,1.6964,1.6961,1.698,1.6979,1.7039,1.7047,1.6982,1.6983,1.6983,0,1.7075,1.708,1.7062,1.7061,1.7054,1.7053,1.7051,1.703,1.7028,1.7017,1.7023,1.7021,1.7018,1.702,1.7006,1.7004,1.6996,1.7017,1.6995,1.7002,1.6998,1.6998,1.6999,1.7022,1.7023,1.7023,1.7024,0,1.7121,1.7112,1.7109,1.7104,1.7101,1.7096,1.7089,1.7091,1.7068,1.7068,1.7068,1.7066,1.7063,1.7062,1.7058,1.7051,1.7035,1.7031,1.7035,1.7041,1.7049,1.7047,1.6977,1.703,1.7029,1.7029,1.7028,1.7028,1.7158,1.7162,1.7151,1.7149,1.7142,1.7137,1.714,1.7128,1.7127,1.7123,1.7111,1.7113,1.7105,1.7097,1.7092,1.7095,1.7084,1.709,1.7091,1.7093,1.7097,1.7048,1.7094,1.7094,1.7094,1.7093,1.7093,0,1.7204,1.7196,1.7195,1.7187,1.7186,1.7171,1.7163,1.7164,1.7166,1.716,1.7158,1.7159,1.7159,1.7146,1.7145,1.715,1.7143,1.7151,1.715,1.715,1.7106,1.7103,1.7157,1.7157,1.7157,1.7157,1.7157,1.7157,1.7228,1.7235,1.7226,1.723,1.7222,1.7224,1.7221,1.7218,1.7212,1.7215,1.7214,1.7206,1.7198,1.7196,1.7196,1.7193,1.7194,1.7205,1.7199,1.7158,1.7152,1.7146,1.7144,1.7205,1.7205,1.7242,1.7243,1.7243]},{"header":{"parameterUnit":"m.s-1","parameterCategory":1,"la1":30.2991,"la2":30.254,"lo1":-89.0895,"lo2":-89.0444,"dy":0.0017,"dx":0.0017,"nx":28,"ny":28,"refTime":"2025-01-17T09:00:00:Z","depth":0,"parameterNumber":3,"parameterNumberName":"V-component_of_WINDS"},"data":[0,0,0,0,0,0,0,0,0,0,0,0,0,0,0,0,0,0,0,0,0,0,0,0,0,0,0,0,0,0,0,0,0,0,0,0,0,0,0,0,0,0,0,0,0,0,0,0,0,0,0,0,0,0,0,0,0,0,1.7579,1.758,0,1.7705,1.7706,1.7707,1.7729,1.7728,1.7727,1.7726,1.7856,1.7861,1.7865,0,0,0,0,0,0,0,0,0,0,0,0,0,1.7357,1.7361,1.7578,1.758,1.7582,1.7704,1.7706,1.7708,1.773,1.7728,1.7727,1.7726,1.7855,1.786,1.7865,0,0,0,0,0,0,0,0,0,0,0,0,0,1.7465,1.7362,1.7578,1.7607,1.7611,1.7704,1.7706,1.7708,1.773,1.7728,1.7727,1.7725,1.7853,1.786,1.7866,1.7939,0,0,1.7887,1.7889,0,0,0,0,0,0,0,0,1.7459,1.7473,1.7601,1.7605,1.761,1.77,1.7676,1.7786,1.773,1.7685,1.7726,1.7724,1.7805,1.7816,1.7843,1.7945,1.7951,1.7887,1.7891,1.7894,1.7896,0,0,0,0,0,0,0,1.7451,1.7468,1.7628,1.7603,1.7608,1.7614,1.7628,1.7697,1.7753,1.7689,1.7691,1.7705,1.7807,1.7837,1.7846,1.7953,1.7887,1.7893,1.7897,1.79,1.8121,1.8122,0,0,0,0,0,0,1.7439,1.7461,1.7624,1.7632,1.7529,1.7619,1.7635,1.7672,1.7752,1.7762,1.7706,1.7706,1.7826,1.7839,1.7851,1.7942,1.7894,1.79,1.7904,1.8119,1.8121,1.8123,0,0,0,0,0,0,1.7434,1.7453,1.7619,1.7547,1.7569,1.7625,1.7667,1.7676,1.7705,1.7765,1.7775,1.7726,1.7825,1.7842,1.7917,1.7947,1.7903,1.7909,1.8117,1.8119,1.8122,1.8125,0,0,0,0,0,0,1.7427,1.7451,1.748,1.7548,1.7573,1.7683,1.7669,1.7679,1.7716,1.7717,1.7786,1.7796,1.7825,1.7907,1.7924,1.7955,1.7915,1.8114,1.8118,1.8121,1.8122,1.8127,1.8131,0,0,0,0,0,1.7419,1.7476,1.7481,1.75,1.761,1.7685,1.7699,1.7731,1.7719,1.7748,1.7786,1.7794,1.794,1.7914,1.7933,1.7968,1.8112,1.8117,1.8121,1.812,1.8126,1.8131,0,0,0,0,0,0,1.741,1.7485,1.7492,1.7572,1.7622,1.7688,1.7726,1.7737,1.7792,1.779,1.7827,1.7843,1.7916,1.7949,1.7919,1.8042,1.8026,1.8034,1.8018,1.8025,1.8029,1.802,1.792,0,0,0,0,0,1.7417,1.7472,1.7535,1.7599,1.7624,1.767,1.7705,1.7725,1.7778,1.78,1.7844,1.7895,1.7953,1.799,1.8047,1.8126,1.8142,1.8159,1.8163,1.8167,1.8174,1.8219,1.8227,1.8137,1.8137,1.8137,0,0,1.7433,1.7481,1.7513,1.7598,1.764,1.7696,1.7688,1.7748,1.779,1.7809,1.7883,1.7916,1.7977,1.8054,1.8091,1.8084,1.8202,1.8172,1.8175,1.818,1.8224,1.8232,1.824,1.814,1.8139,1.8139,0,0,1.7491,1.7532,1.759,1.7631,1.7693,1.7723,1.7737,1.7802,1.7825,1.79,1.7915,1.7965,1.8063,1.8106,1.814,1.8211,1.8221,1.8228,1.8253,1.8296,1.8303,1.831,1.8336,1.8345,1.8235,1.8235,1.8235,0,1.7503,1.7588,1.7619,1.7678,1.7715,1.7733,1.7793,1.7831,1.7908,1.7933,1.7924,1.8048,1.8089,1.8177,1.8194,1.8221,1.8238,1.8222,1.83,1.8307,1.8313,1.8339,1.8348,1.8235,1.8235,1.8235,1.8235,0,1.76,1.7658,1.7698,1.7771,1.7812,1.7871,1.7911,1.7949,1.7965,1.7996,1.8072,1.8122,1.8189,1.821,1.8227,1.8301,1.8295,1.8292,1.8277,1.8322,1.8347,1.8356,1.8236,1.8236,1.8236,1.8236,0,0,1.7657,1.7746,1.776,1.7794,1.7862,1.7908,1.7967,1.8032,1.8064,1.8116,1.8167,1.8249,1.8247,1.8285,1.8306,1.8344,1.8398,1.8337,1.8339,1.8347,1.8482,1.8485,1.8496,1.8403,1.8405,1.8407,1.8478,0,1.7724,1.7831,1.7859,1.795,1.8004,1.8021,1.8073,1.812,1.815,1.8201,1.8234,1.8292,1.8284,1.8308,1.8346,1.8383,1.8425,1.8378,1.8452,1.8454,1.8438,1.8509,1.8512,1.8577,1.8487,1.8489,1.849,0,1.7817,1.787,1.7965,1.8026,1.805,1.8096,1.8157,1.8205,1.8259,1.8278,1.8321,1.8338,1.84,1.8379,1.8466,1.8433,1.8464,1.8487,1.849,1.85,1.8476,1.8522,1.8598,1.8608,1.8506,1.8504,1.8503,0,1.7851,1.7946,1.8015,1.8043,1.8116,1.8147,1.8179,1.8231,1.8268,1.8321,1.8346,1.8405,1.8438,1.8484,1.8517,1.8498,1.8601,1.8582,1.8619,1.8618,1.8642,1.864,1.8726,1.8659,1.8659,1.8659,1.8658,0,1.7923,1.7981,1.8031,1.8074,1.814,1.8172,1.8235,1.8268,1.8314,1.8363,1.8381,1.8427,1.8466,1.8517,1.8543,1.8611,1.8626,1.8643,1.865,1.8643,1.8641,1.8666,1.8662,1.8661,1.8661,1.866,1.866,0,1.7973,1.8009,1.8086,1.8147,1.8164,1.821,1.8263,1.8305,1.8334,1.8397,1.8413,1.846,1.8522,1.8558,1.8635,1.8652,1.8728,1.8732,1.871,1.8713,1.8748,1.8745,1.8854,1.8871,1.8791,1.8792,1.8792,0,1.8018,1.8063,1.8129,1.8163,1.8195,1.825,1.8287,1.8319,1.8358,1.8421,1.8456,1.8518,1.857,1.8666,1.8708,1.8767,1.8773,1.8807,1.8782,1.8774,1.8775,1.8773,1.8778,1.8812,1.8813,1.8813,1.8814,0,1.8094,1.8109,1.8162,1.8221,1.8265,1.8313,1.8361,1.8387,1.8428,1.847,1.8532,1.8572,1.865,1.8712,1.8774,1.8807,1.8818,1.8821,1.8833,1.8827,1.8813,1.8823,1.8723,1.8819,1.8818,1.8818,1.8818,1.8818,1.8144,1.8184,1.8237,1.8295,1.8334,1.8378,1.8421,1.8455,1.8508,1.8574,1.859,1.8655,1.8707,1.8792,1.8826,1.8878,1.8872,1.8889,1.8894,1.8898,1.8899,1.8803,1.8889,1.8889,1.8889,1.8889,1.8889,0,1.8222,1.8256,1.8309,1.8375,1.842,1.8425,1.8478,1.8516,1.8573,1.862,1.867,1.8742,1.8801,1.8846,1.8907,1.894,1.8946,1.8955,1.8954,1.8961,1.89,1.8885,1.8949,1.8949,1.8949,1.8949,1.8949,1.8949,1.8268,1.8337,1.8358,1.8446,1.848,1.8544,1.8574,1.8615,1.8653,1.8732,1.8781,1.8809,1.8856,1.892,1.8974,1.8986,1.9008,1.9016,1.9029,1.8972,1.8965,1.8959,1.8945,1.902,1.9021,1.9086,1.9086,1.9087]}]]